User: anonymous   Login
Location: Unspecified
(0.0000°N, 0.0000°E)
Time: 08:07:47
(UTC+00:00)
Language:

COSMOS-2414 - Orbit

View from above orbital plane
View from above orbital plane
View from above satellite
View from above satellite

Ground track
Ground track

The orbit data is extracted from the following two-line orbital elements,

1 28521U 05002A   19345.90296451 +.00000031 +00000-0 +13267-4 0  9990
2 28521 082.9518 042.6403 0038836 272.4511 087.2208 13.87616350754162
Epoch (UTC): 11 December 2019 21:40:16
Eccentricity: 0.0038836
inclination: 82.9518°
perigee height: 908 km
apogee height: 965 km
right ascension of ascending node: 42.6403°
argument of perigee: 272.4511°
revolutions per day: 13.87616350
mean anomaly at epoch: 87.2208°
orbit number at epoch: 75416

The dashed part of the orbit path shows where the satellite is in the earth's shadow,  

DLR